This is the latest recevied weather packets stored in our database for station/object KD7MPG-3. If no packets are shown the sender has not sent any weather packets the latest 10 day(s).
| Time | Temp. | Humidity | Pressure | Rain* | Wind** | Luminosity | Snow |
|---|---|---|---|---|---|---|---|
| 1777874275 | 22.22° C | 56% | 1016.8 hPa | 0 mm | - | - | - |
| 1777873969 | 22.22° C | 55% | 1016.6 hPa | 0 mm | - | - | - |
| 1777873669 | 22.78° C | 54% | 1016.6 hPa | 0 mm | - | - | - |
| 1777873370 | 22.78° C | 54% | 1016.6 hPa | 0 mm | - | - | - |
| 1777873069 | 22.78° C | 53% | 1016.6 hPa | 0 mm | - | - | - |
| 1777872769 | 23.33° C | 53% | 1016.5 hPa | 0 mm | - | - | - |
| 1777872470 | 23.33° C | 52% | 1016.5 hPa | 0 mm | - | - | - |
| 1777872165 | 23.33° C | 52% | 1016.4 hPa | 0 mm | - | - | - |
| 1777871865 | 23.33° C | 51% | 1016.4 hPa | 0 mm | - | - | - |
| 1777871565 | 23.33° C | 51% | 1016.3 hPa | 0 mm | - | - | - |
| 1777871266 | 23.33° C | 51% | 1016.4 hPa | 0 mm | - | - | - |
| 1777870965 | 23.33° C | 51% | 1016.3 hPa | 0 mm | - | - | - |
| 1777870666 | 23.33° C | 51% | 1016.2 hPa | 0 mm | - | - | - |
| 1777870366 | 22.78° C | 51% | 1016.1 hPa | 0 mm | - | - | - |
| 1777870066 | 22.78° C | 51% | 1016.1 hPa | 0 mm | - | - | - |
| 1777869765 | 23.33° C | 52% | 1016 hPa | 0 mm | - | - | - |
| 1777869465 | 23.33° C | 51% | 1015.8 hPa | 0 mm | - | - | - |
| 1777869164 | 23.89° C | 51% | 1015.7 hPa | 0 mm | - | - | - |
| 1777868864 | 23.89° C | 50% | 1015.6 hPa | 0 mm | - | - | - |
| 1777868563 | 24.44° C | 49% | 1015.5 hPa | 0 mm | - | - | - |
| 1777868264 | 24.44° C | 49% | 1015.4 hPa | 0 mm | - | - | - |
| 1777867964 | 25° C | 48% | 1015.4 hPa | 0 mm | - | - | - |
| 1777867664 | 25.56° C | 47% | 1015.2 hPa | 0 mm | - | - | - |
| 1777867360 | 25.56° C | 46% | 1015.3 hPa | 0 mm | - | - | - |
| 1777867059 | 26.11° C | 46% | 1015.2 hPa | 0 mm | - | - | - |
* Rain latest hour (hover to see other rain measurements)
** Current wind speed in m/s (hover to see current wind gust speed)